When you browse on this site, cookies collect data to enhance your experience and personalize the content and advertising you see.
Visit our Privacy Policy to learn more. By continuing to use the site, you agree to this use of cookies and data.
  • In Hungary
  • List of Countries
  • For 7 days
  • Water Temperature
  • Satellite Maps
  • Weather Map
  • News
  • Weather Widgets
  • user-avatar
    Login

    Hourly Weather Neckarsulm

    Today, 24 February, Sunday

    Time Temperature Precipitation Wind Pressure Humidity
    00:00 +1°C° 0 mm 3 mps 763 mmHg 46%
    01:00 0°C° 0 mm 3 mps 763 mmHg 45%
    02:00 +1°C° 0 mm 2 mps 763 mmHg 45%
    03:00 +1°C° 0 mm 2 mps 762 mmHg 44%
    04:00 +1°C° 0 mm 2 mps 762 mmHg 44%
    05:00 +1°C° 0 mm 2 mps 762 mmHg 43%
    06:00 +1°C° 0 mm 2 mps 762 mmHg 43%
    07:00 +1°C° 0 mm 2 mps 762 mmHg 43%
    08:00 +2°C° 0 mm 2 mps 762 mmHg 39%
    09:00 +2°C° 0 mm 3 mps 763 mmHg 35%
    10:00 +4°C° 0 mm 3 mps 763 mmHg 32%
    11:00 +7°C° 0 mm 3 mps 763 mmHg 30%
    12:00 +8°C° 0 mm 2 mps 763 mmHg 29%
    13:00 +10°C° 0 mm 2 mps 762 mmHg 28%
    14:00 +10°C° 0 mm 2 mps 762 mmHg 32%
    15:00 +12°C° 0 mm 2 mps 762 mmHg 35%
    16:00 +12°C° 0 mm 2 mps 762 mmHg 39%
    17:00 +9°C° 0 mm 2 mps 762 mmHg 44%
    18:00 +7°C° 0 mm 2 mps 763 mmHg 48%
    19:00 +6°C° 0 mm 2 mps 763 mmHg 53%
    20:00 +5°C° 0 mm 2 mps 763 mmHg 53%
    21:00 +5°C° 0 mm 2 mps 763 mmHg 53%
    22:00 +4°C° 0 mm 2 mps 763 mmHg 53%
    23:00 +4°C° 0 mm 2 mps 763 mmHg 53%

    Tomorrow, 25 February, Monday

    Time Temperature Precipitation Wind Pressure Humidity
    00:00 +5°C° 0 mm 1 mps 763 mmHg 54%
    01:00 +4°C° 0 mm 1 mps 763 mmHg 54%
    02:00 +4°C° 0 mm 1 mps 763 mmHg 54%
    03:00 +3°C° 0 mm 2 mps 763 mmHg 55%
    04:00 +3°C° 0 mm 2 mps 763 mmHg 55%
    05:00 +3°C° 0 mm 2 mps 763 mmHg 56%
    06:00 +2°C° 0 mm 2 mps 763 mmHg 57%
    07:00 +2°C° 0 mm 2 mps 763 mmHg 58%
    08:00 +4°C° 0 mm 2 mps 763 mmHg 56%
    09:00 +5°C° 0 mm 2 mps 763 mmHg 53%
    10:00 +7°C° 0 mm 2 mps 763 mmHg 51%
    11:00 +9°C° 0 mm 2 mps 763 mmHg 50%
    12:00 +12°C° 0 mm 2 mps 763 mmHg 48%
    13:00 +13°C° 0 mm 2 mps 763 mmHg 47%
    14:00 +14°C° 0 mm 2 mps 762 mmHg 49%
    15:00 +14°C° 0 mm 2 mps 762 mmHg 52%
    16:00 +15°C° 0 mm 2 mps 762 mmHg 55%
    17:00 +13°C° 0 mm 2 mps 762 mmHg 61%
    18:00 +10°C° 0 mm 2 mps 762 mmHg 67%
    19:00 +9°C° 0 mm 2 mps 762 mmHg 73%
    20:00 +8°C° 0 mm 2 mps 762 mmHg 74%
    21:00 +7°C° 0 mm 2 mps 762 mmHg 75%
    22:00 +7°C° 0 mm 2 mps 762 mmHg 76%
    23:00 +7°C° 0 mm 1 mps 762 mmHg 77%

    Day after tomorrow, 26 February, Tuesday

    Time Temperature Precipitation Wind Pressure Humidity
    00:00 +7°C° 0 mm 1 mps 762 mmHg 77%
    01:00 +7°C° 0 mm 1 mps 762 mmHg 77%
    02:00 +7°C° 0 mm 1 mps 762 mmHg 78%
    03:00 +6°C° 0 mm 1 mps 762 mmHg 79%
    04:00 +6°C° 0 mm 1 mps 761 mmHg 80%
    05:00 +6°C° 0 mm 1 mps 761 mmHg 81%
    06:00 +6°C° 0 mm 1 mps 761 mmHg 81%
    07:00 +5°C° 0 mm 1 mps 761 mmHg 81%
    08:00 +7°C° 0 mm 1 mps 761 mmHg 75%
    09:00 +9°C° 0 mm 1 mps 761 mmHg 69%
    10:00 +10°C° 0 mm 1 mps 761 mmHg 63%
    11:00 +12°C° 0 mm 1 mps 761 mmHg 57%
    12:00 +14°C° 0 mm 1 mps 761 mmHg 52%
    13:00 +15°C° 0 mm 1 mps 761 mmHg 46%
    14:00 +15°C° 0 mm 1 mps 760 mmHg 46%
    15:00 +16°C° 0 mm 1 mps 760 mmHg 46%
    16:00 +16°C° 0 mm 1 mps 760 mmHg 46%
    17:00 +14°C° 0 mm 1 mps 760 mmHg 52%
    18:00 +13°C° 0 mm 1 mps 760 mmHg 57%
    19:00 +11°C° 0 mm 1 mps 760 mmHg 63%
    20:00 +10°C° 0 mm 1 mps 760 mmHg 65%
    21:00 +10°C° 0 mm 1 mps 760 mmHg 67%
    22:00 +9°C° 0 mm 1 mps 760 mmHg 69%
    23:00 +8°C° 0 mm 1 mps 760 mmHg 69%

    27 February, Wednesday

    Time Temperature Precipitation Wind Pressure Humidity
    00:00 +8°C° 0 mm 1 mps 759 mmHg 70%
    01:00 +8°C° 0 mm 1 mps 759 mmHg 71%
    02:00 +7°C° 0 mm 1 mps 759 mmHg 71%
    03:00 +7°C° 0 mm 1 mps 758 mmHg 70%
    04:00 +7°C° 0 mm 1 mps 758 mmHg 70%
    05:00 +6°C° 0 mm 1 mps 758 mmHg 70%
    06:00 +6°C° 0 mm 1 mps 758 mmHg 69%
    07:00 +6°C° 0 mm 1 mps 758 mmHg 68%
    08:00 +7°C° 0 mm 1 mps 758 mmHg 63%
    09:00 +9°C° 0 mm 1 mps 757 mmHg 58%
    10:00 +11°C° 0 mm 1 mps 757 mmHg 53%
    11:00 +12°C° 0 mm 1 mps 757 mmHg 48%
    12:00 +14°C° 0 mm 1 mps 756 mmHg 43%
    13:00 +16°C° 0 mm 1 mps 756 mmHg 39%
    14:00 +16°C° 0 mm 1 mps 755 mmHg 39%
    15:00 +16°C° 0 mm 1 mps 755 mmHg 40%
    16:00 +18°C° 0 mm 1 mps 754 mmHg 41%
    17:00 +15°C° 0 mm 1 mps 754 mmHg 45%
    18:00 +13°C° 0 mm 1 mps 754 mmHg 50%
    19:00 +10°C° 0 mm 0 mps 754 mmHg 55%
    20:00 +11°C° 0 mm 1 mps 754 mmHg 57%
    21:00 +10°C° 0 mm 1 mps 754 mmHg 60%
    22:00 +9°C° 0 mm 1 mps 754 mmHg 62%
    23:00 +9°C° 0 mm 1 mps 754 mmHg 64%

    28 February, Thursday

    Time Temperature Precipitation Wind Pressure Humidity
    00:00 +9°C° 0 mm 1 mps 754 mmHg 66%
    01:00 +8°C° 0 mm 1 mps 753 mmHg 68%
    02:00 +8°C° 0 mm 1 mps 753 mmHg 70%
    03:00 +7°C° 0 mm 1 mps 753 mmHg 72%
    04:00 +7°C° 0 mm 1 mps 753 mmHg 74%
    05:00 +7°C° 0 mm 1 mps 753 mmHg 74%
    06:00 +6°C° 0 mm 1 mps 752 mmHg 75%
    07:00 +6°C° 0 mm 1 mps 752 mmHg 76%
    08:00 +8°C° 0 mm 1 mps 752 mmHg 71%
    09:00 +8°C° 0 mm 2 mps 752 mmHg 65%
    10:00 +10°C° 0 mm 2 mps 752 mmHg 59%
    11:00 +12°C° 0 mm 2 mps 752 mmHg 55%
    12:00 +14°C° 0 mm 2 mps 752 mmHg 52%
    13:00 +14°C° 0 mm 3 mps 752 mmHg 49%
    14:00 +14°C° 0 mm 3 mps 751 mmHg 50%
    15:00 +16°C° 0 mm 3 mps 751 mmHg 51%
    16:00 +16°C° 0 mm 3 mps 751 mmHg 51%
    17:00 +14°C° 0 mm 2 mps 751 mmHg 57%
    18:00 +13°C° 0 mm 2 mps 751 mmHg 63%
    19:00 +11°C° 0 mm 1 mps 751 mmHg 69%
    20:00 +11°C° 0 mm 1 mps 751 mmHg 72%
    21:00 +10°C° 0 mm 1 mps 751 mmHg 74%
    22:00 +10°C° 0 mm 1 mps 752 mmHg 77%
    23:00 +9°C° 0 mm 1 mps 752 mmHg 80%

    1 March, Friday

    Time Temperature Precipitation Wind Pressure Humidity
    00:00 +9°C° 0 mm 1 mps 752 mmHg 82%
    01:00 +8°C° 0 mm 1 mps 752 mmHg 85%
    02:00 +8°C° 0 mm 1 mps 751 mmHg 86%
    03:00 +8°C° 0 mm 1 mps 751 mmHg 88%
    04:00 +7°C° 0 mm 1 mps 751 mmHg 89%
    05:00 +7°C° 0 mm 1 mps 751 mmHg 90%
    06:00 +6°C° 0 mm 0 mps 751 mmHg 91%
    07:00 +6°C° 0 mm 0 mps 751 mmHg 92%
    08:00 +7°C° 0 mm 0 mps 751 mmHg 87%
    09:00 +8°C° 0 mm 0 mps 751 mmHg 83%
    10:00 +10°C° 0 mm 0 mps 752 mmHg 79%
    11:00 +12°C° 0 mm 1 mps 751 mmHg 75%
    12:00 +13°C° 0 mm 1 mps 751 mmHg 70%
    13:00 +14°C° 0 mm 2 mps 751 mmHg 65%
    14:00 +14°C° 0 mm 2 mps 751 mmHg 63%
    15:00 +14°C° 0 mm 2 mps 751 mmHg 62%
    16:00 +14°C° 0 mm 2 mps 750 mmHg 60%
    17:00 +13°C° 0 mm 2 mps 750 mmHg 65%
    18:00 +10°C° 0 mm 2 mps 751 mmHg 70%
    19:00 +10°C° 0 mm 1 mps 751 mmHg 75%
    20:00 +8°C° 0 mm 2 mps 751 mmHg 75%
    21:00 +8°C° 0 mm 2 mps 751 mmHg 74%
    22:00 +7°C° 0 mm 2 mps 752 mmHg 74%
    23:00 +6°C° 0 mm 2 mps 752 mmHg 74%
    Show more